Location: Unspecified
(35.6961°N, 0.0000°E)
Time: 08:41:23
(UTC+00:00)

Altair - Pass Details

Date: 27 May 2019
Orbit: 1501 x 1683 km, 47.2° (Epoch: 18 June)

Event Time Altitude Azimuth Distance (km) Brightness Sun altitude
Rises 09:55:39 0° 302° (WNW) 4,923 9.9 59.8°
Reaches altitude 10° 09:58:55 10° 299° (WNW) 3,919 9.5 60.5°
Maximum altitude 10:08:34 55° 225° (SW) 1,900 8.7 62.3°
Drops below altitude 10° 10:17:52 10° 151° (SSE) 3,778 10.0 64.0°
Sets 10:20:58 0° 147° (SSE) 4,736 10.4 64.5°
